Volver al catálogo

THORAD AGENA D DEB

ActivoPO
NORAD 4911·DEBRIS·🇺🇸 United States

Lanzado Apr 8, 1970 desde Vandenberg Space Force Base

Loading…

Próximos Pases

TLE

Source: Space-Track
1  4911U 70025FH  26225.16577775  .00000798  00000-0  30981-3 0  9999
2  4911  99.9619 114.4474 0059577 154.3878 206.0273 14.32349061879753

Sigue THORAD AGENA D DEB en tiempo real con AllMySat

Download on the App Store